Flag for India Weather past 2 weeks in Robertsganj, Uttar Pradesh, India

Now
90 °F

Broken clouds.


Feels Like: 103 °F
Forecast: 75 / 87 °F
Wind: 16 mph from East

Location: Varanasi / Babatpur

Current Time: Sep 2, 2014 at 3:20:04 PM

Latest Report: Sep 2, 2014 at 2:00 PM


Visibility: 4 mi

Pressure: 29.56 "Hg

Humidity: 67%

Dew point: 77 °F

Location of RobertsganjLocation

Historic Weather in Robertsganj — Graph

°F

Robertsganj temperature yesterday

Maximum temperature yesterday: 90 °F (at 1:00 PM)
Minimum temperature yesterday: 81 °F (at 12:00 AM)
Average temperature yesterday: 85 °F

Past Weeks' High & Low Weather Summary

 TemperatureHumidityPressure
High100 °F (Aug 29, 2:00 PM)94% (Aug 20, 10:00 PM)29.77 "Hg (Aug 20, 10:00 PM)
Low79 °F (Aug 20, 10:00 PM)45% (Aug 29, 2:00 PM)29.45 "Hg (Sep 1, 5:00 PM)
Average88 °F74%29.62 "Hg
* Reported Aug 18 2:00 PM — Sep 2 2:00 PM, Robertsganj, Weather by CustomWeather, © 2014

Note: Actual official high and low records may vary slightly from our data, if they occured in-between our weather recording intervals... More about our weather records

Advertising

Robertsganj weather history for previous 24 hours

 ConditionsComfort  
Time TempWeatherWind HumidityBarometerVisibility
2:00 PM
Sep 2
90 °FBroken clouds.16 mph67%29.56 "Hg4 mi
1:00 PM91 °FBroken clouds.16 mph63%29.56 "Hg4 mi
12:00 PM90 °FBroken clouds.15 mph67%29.59 "Hg4 mi
11:00 AM88 °FBroken clouds.15 mph70%29.59 "Hg4 mi
10:00 AM84 °FBroken clouds.15 mph79%29.59 "Hg4 mi
9:00 AM84 °FScattered clouds.3 mph79%29.59 "Hg4 mi
8:00 AM82 °FScattered clouds.14 mph84%29.59 "Hg3 mi
6:00 AM81 °FPassing clouds.9 mph94%29.56 "Hg2 mi
5:00 AM81 °FPassing clouds.9 mph94%29.53 "Hg2 mi
12:00 AM82 °FPartly cloudy.12 mph84%29.56 "Hg2 mi
11:00 PM
Sep 1
84 °FPartly cloudy.12 mph79%29.56 "Hg2 mi
10:00 PM84 °FLight rain. Passing clouds.14 mph74%29.56 "Hg2 mi
9:00 PM84 °FPartly cloudy.16 mph74%29.56 "Hg2 mi
8:00 PM86 °FPartly cloudy.14 mph70%29.53 "Hg3 mi
7:00 PM86 °FPartly cloudy.15 mph70%29.47 "Hg3 mi
6:00 PM86 °FBroken clouds.6 mph70%29.47 "Hg4 mi
5:00 PM90 °FBroken clouds.20 mph67%29.45 "Hg4 mi
3:00 PM90 °FBroken clouds.15 mph63%29.47 "Hg4 mi
Weather by CustomWeather, © 2014

See weather overviewHow to use our weather pages